Weather History for George, South Africa

Change the Weather History Date:

Monday, December 5, 2011

  Actual Average Record
Temperature  
Mean Temperature 76 °F -  
Max Temperature 93 °F 72 °F 91 °F (2011)
Min Temperature 59 °F 57 °F 50 °F (2006)
Cooling Degree Days 11    
Growing Degree Days 26 (Base 50)    
Moisture  
Dew Point 60 °F    
Average Humidity 73    
Maximum Humidity 100    
Minimum Humidity 24    
Precipitation  
Precipitation 0.24 in - - ()
Sea Level Pressure  
Sea Level Pressure 29.72 in    
Wind  
Wind Speed 5 mph ()    
Max Wind Speed 20 mph    
Max Gust Speed -    
Visibility 7.3 miles    
Events Rain , Thunderstorm    
Averages and records for this station are not official NWS values.
T = Trace of Precipitation, MM = Missing Value Source: Averaged Metar Reports

Daily Weather History Graph

Daily Weather History Graph

Search for Another Location

Airport:

Trip Planner

Search our weather history database for the weather conditions in past years. The results will help you decide how hot, cold, wet, or windy it might be!

Date:

Astronomy

Dec. 05, 2011 Rise Set
Actual Time 5:12 AM SAST 7:30 PM SAST
Civil Twilight 4:43 AM SAST 7:58 PM SAST
Nautical Twilight 4:07 AM SAST 8:34 PM SAST
Astronomical Twilight 3:29 AM SAST 9:12 PM SAST
Moon 3:02 PM SAST (12/5) 1:45 AM SAST (12/5)
Length of Visible Light 15h 15m
Length of Day
14h 18m
Waxing Gibbous, 77% of the Moon is Illuminated
Dec 5
Waxing Gibbous
Dec 10
Full
Dec 18
Last Quarter
Dec 24
New
Jan 1
First Quarter

Hourly Weather History & Observations

Time (SAST) Temp. Heat Index Dew Point Humidity Pressure Visibility Wind Dir Wind Speed Gust Speed Precip Events Conditions
12:00 AM 60.8 °F - 60.8 °F 100% 29.74 in - North 3.5 mph - N/A   Clear
1:00 AM 62.6 °F - 60.8 °F 94% 29.71 in - Calm Calm - N/A   Clear
2:00 AM 61 °F - 59 °F 91% 29.70 in 12 mi 2.3 mph - -  
2:00 AM 60.8 °F - 59.0 °F 94% 29.68 in - Variable 2.3 mph - N/A   Clear
3:00 AM 62.6 °F - 57.2 °F 82% 29.65 in - North 2.3 mph - N/A   Clear
4:00 AM 60.8 °F - 55.4 °F 82% 29.65 in - Variable 2.3 mph - N/A   Clear
4:44 AM 66.2 °F - 51.8 °F 60% 29.65 in - WNW 3.5 mph - N/A   Clear
5:00 AM 66 °F - 51 °F 49% 29.65 in 12 mi 3.5 mph - -  
5:00 AM 66.2 °F - 51.8 °F 60% 29.65 in - NW 3.5 mph - N/A   Clear
6:00 AM 62.6 °F - 55.4 °F 77% 29.65 in - West 3.5 mph - N/A   Clear
6:25 AM 66.2 °F - 59.0 °F 78% 29.65 in - Variable 2.3 mph - N/A   Clear
7:00 AM 66.2 °F - 60.8 °F 83% 29.65 in 6.2 mi Variable 3.5 mph - N/A   Partly Cloudy
8:00 AM 67 °F - 63 °F 84% 29.69 in 12 mi West 5.8 mph - -   Scattered Clouds
8:00 AM 66.2 °F - 62.6 °F 88% 29.68 in 5.6 mi WNW 5.8 mph - N/A   Partly Cloudy
8:13 AM 69.8 °F - 64.4 °F 83% 29.68 in 6.2 mi WNW 5.8 mph - N/A   Partly Cloudy
8:39 AM 73.4 °F - 62.6 °F 69% 29.68 in 6.2 mi West 5.8 mph - N/A   Partly Cloudy
9:00 AM 77.0 °F - 60.8 °F 57% 29.68 in 6.2 mi West 4.6 mph - N/A   Partly Cloudy
9:04 AM 80.6 °F 80.8 °F 57.2 °F 45% 29.68 in 6.2 mi WNW 4.6 mph - N/A   Partly Cloudy
9:15 AM 84.2 °F - 50.0 °F 30% 29.68 in 6.2 mi West 6.9 mph - N/A   Partly Cloudy
9:47 AM 87.8 °F 85.7 °F 53.6 °F 31% 29.68 in 6.2 mi West 4.6 mph - N/A   Partly Cloudy
10:00 AM 87.8 °F - 51.8 °F 29% 29.68 in 6.2 mi WNW 4.6 mph - N/A   Partly Cloudy
10:24 AM 91.4 °F 89.4 °F 55.4 °F 29% 29.68 in 6.2 mi West 4.6 mph - N/A   Partly Cloudy
11:00 AM 92 °F - 60 °F 24% 29.64 in 12 mi South 6.9 mph - -   Scattered Clouds
11:00 AM 91.4 °F 90.7 °F 59.0 °F 34% 29.68 in 6.2 mi South 5.8 mph - N/A   Partly Cloudy
12:00 PM 71.6 °F - 64.4 °F 78% 29.68 in 6.2 mi South 16.1 mph - N/A   Partly Cloudy
1:00 PM 69.8 °F - 64.4 °F 83% 29.71 in 6.2 mi SSW 10.4 mph - N/A   Scattered Clouds
1:01 PM 69.8 °F - 64.4 °F 83% 29.71 in 6.2 mi SSW 11.5 mph - N/A   Mostly Cloudy
2:00 PM 69 °F - 65 °F 81% 29.73 in 12 mi SSW 19.6 mph - -   Mostly Cloudy
2:00 PM 68.0 °F - 64.4 °F 88% 29.74 in 6.2 mi SSW 19.6 mph - N/A   Mostly Cloudy
2:09 PM 68.0 °F - 64.4 °F 88% 29.74 in 6.2 mi SW 10.4 mph - N/A   Partly Cloudy
3:00 PM 68.0 °F - 64.4 °F 88% 29.77 in 6.2 mi NE 5.8 mph - N/A   Scattered Clouds
3:01 PM 68.0 °F - 64.4 °F 88% 29.74 in 6.2 mi East 4.6 mph - N/A Thunderstorm Thunderstorm
3:55 PM 66.2 °F - 62.6 °F 88% 29.77 in 5.0 mi SW 6.9 mph - N/A Rain Rain
4:00 PM 66.2 °F - 62.6 °F 88% 29.77 in 5.0 mi SW 6.9 mph - N/A Rain Rain
5:00 PM 69 °F - 64 °F 81% 29.77 in 12 mi SSW 12.7 mph - - Rain Light Rain
5:00 PM 69.8 °F - 64.4 °F 83% 29.80 in - SW 12.7 mph - N/A   Clear
6:00 PM 69.8 °F - 62.6 °F 78% 29.80 in 6.2 mi SW 9.2 mph - N/A   Partly Cloudy
7:00 PM 68.0 °F - 62.6 °F 83% 29.83 in 6.2 mi WSW 5.8 mph - N/A   Partly Cloudy
8:00 PM 67 °F - 63 °F 82% 29.84 in 12 mi WNW 3.5 mph - -   Mostly Cloudy
8:00 PM 66.2 °F - 62.6 °F 88% 29.83 in 6.2 mi WNW 4.6 mph - N/A   Mostly Cloudy
9:00 PM 68.0 °F - 62.6 °F 83% 29.86 in 6.2 mi North 4.6 mph - N/A   Overcast
10:00 PM 68.0 °F - 62.6 °F 83% 29.89 in 6.2 mi WNW 4.6 mph - N/A   Mostly Cloudy
11:00 PM 64.4 °F - 60.8 °F 88% 29.89 in 6.2 mi West 5.8 mph - N/A   Mostly Cloudy